Wind_Speed
18 19 19 20 20 20 21 21 22 21 20 19 19 19 20 20 20 20 20 20 20 20 20 20 20 21 20 20 20 20 20 20 20 20 19 19 19 19 19 19 19 19 19 19
19 20 20 21 21 21 21 22 23 22 21 21 21 21 21 21 22 22 22 22 22 21 21 21 21 21 22 21 21 21 22 22 21 21 21 21 20 20 20 19 19 19 19 19
21 21 22 22 21 22 22 23 23 24 23 22 23 23 23 23 23 23 23 24 23 23 23 22 22 22 23 22 22 22 23 23 22 23 22 21 21 21 21 20 20 20 20 20
22 23 24 24 23 23 24 24 24 25 24 24 24 24 24 24 24 24 25 25 25 25 24 24 24 24 24 24 24 24 23 23 23 23 23 22 22 22 22 22 22 21 21 21
24 24 25 24 24 24 25 25 25 25 25 25 25 26 25 26 26 26 26 26 26 26 26 26 26 26 26 25 25 25 25 25 24 24 23 24 23 23 23 23 23 22 22 22
25 25 26 25 24 25 25 25 25 26 26 26 26 27 27 27 27 27 27 27 27 27 27 27 27 27 27 27 26 26 26 26 26 25 25 25 25 25 25 25 24 24 24 24
25 26 26 25 25 25 25 25 25 25 26 27 27 27 27 27 27 28 28 28 28 28 28 28 28 28 28 28 28 28 28 27 27 27 27 27 27 27 27 26 26 26 26 26
26 26 26 26 26 26 26 27 26 26 26 27 27 27 27 27 27 28 28 29 29 29 29 30 29 29 29 29 29 30 30 29 29 29 29 28 28 28 28 28 28 28 27 27
26 26 26 27 28 28 28 28 28 27 27 27 27 27 27 28 28 28 29 30 30 30 30 31 31 31 30 31 30 30 31 31 30 30 30 29 29 29 29 29 30 30 29 29
26 26 27 28 28 28 29 29 29 29 28 28 28 28 28 28 28 29 30 30 30 31 31 32 32 32 31 31 31 31 31 31 31 32 31 31 31 31 31 31 31 31 31 31
27 27 28 28 28 29 29 29 30 29 29 29 29 29 29 29 29 30 30 31 31 31 32 32 32 33 33 32 32 32 31 31 32 32 32 32 32 32 32 32 32 32 32 32
27 27 28 28 28 29 30 29 29 30 30 30 30 29 30 30 30 31 31 31 31 31 32 32 32 32 33 33 33 33 33 32 32 33 33 34 34 34 35 34 34 34 34 34
28 28 29 28 29 29 29 29 30 30 30 30 30 31 31 31 30 30 30 31 31 32 32 32 32 33 33 34 34 34 35 34 34 34 34 35 35 36 36 36 36 36 35 35
28 28 28 28 29 29 29 29 30 30 30 30 31 31 30 31 31 31 31 31 31 31 31 32 33 33 33 34 35 35 35 36 36 36 35 35 35 36 36 36 36 36 36 35
28 28 28 28 28 29 29 29 29 29 29 30 30 30 30 31 31 31 31 31 32 32 32 33 33 34 34 35 35 35 35 36 36 36 37 37 36 37 37 37 37 37 37 37
27 28 28 28 28 28 29 29 29 29 29 29 30 30 30 30 31 31 32 32 32 32 32 33 33 34 35 35 36 36 36 36 37 37 38 38 38 38 38 38 38 38 39 38
26 27 27 27 28 28 29 29 29 30 30 31 31 30 30 31 31 32 32 33 33 33 33 33 33 34 34 34 35 36 36 37 37 38 38 38 38 39 39 39 40 40 40 39
26 26 27 28 28 28 28 28 29 29 30 31 31 30 30 31 32 32 33 34 34 33 33 34 34 34 34 35 35 36 36 37 38 38 39 39 39 39 39 40 40 40 40 40
26 26 26 27 27 28 28 29 29 30 31 31 31 31 31 32 32 33 33 33 33 33 33 34 34 35 35 34 35 36 36 37 38 38 38 38 39 39 38 39 39 39 39 39
26 26 26 27 27 28 29 30 30 31 31 31 31 31 31 32 32 33 32 32 33 32 33 33 33 33 33 33 34 34 35 36 36 37 38 38 38 38 38 38 38 38 38 39
26 26 26 27 27 28 29 30 30 30 30 30 30 30 30 31 31 32 31 30 30 30 31 31 31 31 31 31 31 31 32 33 34 35 36 36 36 36 37 37 37 36 36 37
27 27 27 27 28 29 29 29 29 30 29 30 30 29 30 31 31 31 30 30 29 29 30 31 30 30 30 30 31 31 31 32 32 33 34 34 34 34 35 35 35 35 35 35
28 28 28 28 28 29 29 29 30 30 30 30 29 29 29 29 29 29 29 29 29 29 30 29 29 29 29 30 30 30 31 31 31 32 32 32 32 32 32 32 32 32 33 33
29 28 28 28 28 29 29 30 30 30 30 29 28 28 28 28 27 26 27 28 29 29 29 29 29 29 29 29 29 29 29 29 29 29 30 29 29 29 29 29 30 30 31 32
29 29 29 29 29 29 29 29 29 28 28 28 28 28 27 26 26 26 26 26 27 27 28 28 28 28 28 28 28 28 28 27 27 27 27 28 28 28 28 28 29 29 30 31
28 28 28 28 28 28 28 28 27 27 27 26 26 26 26 26 25 25 25 26 26 27 27 26 26 26 26 26 26 26 26 26 27 27 26 25 26 27 27 27 28 28 29 29
27 27 28 28 28 28 28 27 26 25 25 25 24 24 24 24 24 25 25 24 25 25 26 25 25 25 24 24 24 25 25 25 25 26 26 25 26 26 25 26 27 28 28 28
Wind_Direction
260 260 260 259 259 260 261 263 265 267 267 267 267 267 268 269 269 270 272 273 275 275 276 275 273 272 272 272 272 273 274 275 275 274 273 272 271 267 265 266 263 266 268 269
264 264 263 262 263 264 265 265 267 268 267 266 267 265 265 267 269 270 270 272 274 275 276 275 274 273 272 272 273 274 274 274 273 273 272 271 270 268 265 264 264 266 267 268
267 266 266 265 266 266 268 268 267 267 268 267 266 267 265 266 268 269 270 270 271 273 274 274 273 272 272 272 274 275 274 272 272 271 270 269 269 268 265 264 266 267 267 269
270 269 268 269 269 269 268 268 269 268 266 266 266 267 267 267 268 268 268 269 270 271 272 272 272 271 271 272 273 274 273 272 273 272 269 268 267 266 265 265 266 267 267 267
271 271 271 271 270 270 270 269 269 269 269 268 267 268 268 268 268 269 269 269 270 271 272 272 272 271 271 272 272 272 272 271 272 272 271 268 266 265 265 264 266 266 266 267
271 271 272 273 271 271 272 271 270 270 270 270 269 269 269 269 269 270 270 269 269 270 271 272 272 271 270 271 271 272 272 271 270 270 271 270 267 265 264 266 267 267 267 267
271 272 273 273 272 272 272 273 273 272 270 269 270 271 270 270 271 270 270 270 270 270 271 272 272 271 271 271 271 271 270 270 270 270 269 269 267 264 263 264 266 267 268 268
271 272 273 272 273 273 273 274 274 273 272 272 271 271 271 271 271 270 270 269 270 270 270 271 272 272 271 270 270 270 269 268 267 268 268 267 266 264 262 263 265 266 268 268
272 273 272 273 274 274 274 274 274 274 273 272 272 271 271 271 271 271 270 269 269 270 270 271 271 272 271 270 270 270 269 267 266 265 264 264 264 265 265 265 265 266 266 267
272 273 274 274 275 276 276 275 274 274 273 273 272 273 273 272 271 271 270 270 269 269 269 270 270 271 271 270 269 268 267 266 266 265 264 264 264 266 266 266 265 266 266 267
272 274 275 276 276 276 276 275 274 273 273 274 274 274 274 273 273 273 272 271 271 270 270 270 270 270 270 270 268 268 267 265 265 265 264 264 265 266 266 266 266 267 267 267
273 274 275 276 276 276 276 276 275 275 275 275 274 274 274 273 274 273 272 273 273 272 271 271 270 269 269 268 268 267 266 265 266 266 266 266 265 265 266 266 267 267 267 267
274 275 276 276 275 276 276 276 277 277 277 276 275 275 275 274 274 274 274 275 275 274 274 272 270 270 269 267 267 267 265 265 266 267 267 267 266 265 265 266 266 266 267 266
276 277 276 274 274 274 275 276 277 277 277 278 277 276 275 275 275 275 276 277 277 276 275 274 272 271 270 268 267 266 266 265 265 266 267 267 267 266 266 266 266 266 266 265
278 278 277 276 276 275 275 277 277 276 276 276 275 274 274 275 275 276 276 278 279 278 277 276 274 271 269 268 267 267 266 265 266 267 266 266 267 267 266 266 266 267 267 266
280 279 278 278 277 277 277 277 278 277 276 276 276 274 274 274 275 276 277 278 278 277 277 276 275 272 270 269 267 267 266 266 266 267 266 265 266 267 266 266 266 267 267 266
281 279 279 279 279 279 278 280 280 279 278 277 277 276 275 275 276 277 277 278 277 278 277 276 275 274 271 269 268 267 267 266 265 265 266 266 267 268 268 267 266 266 266 265
283 283 282 283 282 281 281 282 283 282 282 280 279 279 279 278 278 279 279 279 279 279 277 275 275 275 273 270 269 268 268 267 266 266 266 267 267 268 269 268 266 265 264 264
284 285 284 284 284 283 283 284 285 285 285 282 281 281 281 280 279 279 280 281 282 282 280 277 277 276 273 271 270 269 268 267 267 266 267 267 268 268 269 268 266 265 264 264
286 286 286 286 286 286 286 287 287 286 285 283 282 282 282 281 280 280 280 281 283 283 282 279 278 278 276 273 271 270 269 267 267 267 267 269 269 269 268 267 266 265 265 264
288 288 289 288 287 287 288 289 288 288 287 285 284 284 283 282 282 282 282 282 283 283 282 280 280 280 278 275 274 273 272 271 269 269 269 269 269 268 267 267 267 266 265 264
289 289 289 289 289 289 289 289 288 288 287 286 285 284 284 285 285 284 283 283 283 284 283 282 281 280 279 277 276 275 275 273 272 271 270 270 269 268 268 266 266 265 265 265
288 289 290 290 290 290 289 289 289 289 289 286 285 286 287 287 287 287 284 283 283 284 284 283 281 281 281 279 278 276 276 275 274 273 271 270 269 269 269 268 265 264 264 265
285 286 288 289 290 291 290 290 291 291 290 288 287 287 288 287 286 286 286 285 284 285 285 282 281 281 280 279 279 278 277 276 275 273 272 270 269 270 269 268 267 264 263 264
285 286 288 289 290 291 292 291 291 290 289 288 289 289 289 288 286 285 286 286 286 286 286 286 284 282 281 280 280 278 277 275 275 274 271 269 268 268 268 268 268 266 264 264
285 286 288 289 291 293 294 293 292 290 290 290 290 290 289 289 287 286 286 287 288 289 290 290 288 285 283 282 281 280 279 277 275 275 274 270 269 270 270 270 270 268 267 267
285 286 288 290 292 293 295 295 294 291 291 292 292 291 290 288 287 287 286 288 289 289 289 289 287 286 285 283 283 282 281 279 278 276 275 273 271 271 270 271 271 269 268 267
Height
5812 5813 5813 5814 5814 5815 5815 5815 5816 5817 5817 5817 5817 5817 5816 5816 5816 5816 5815 5815 5814 5814 5813 5812 5811 5810 5810 5810 5809 5808 5808 5807 5806 5805 5805 5804 5804 5804 5804 5804 5804 5804 5804 5804
5807 5807 5807 5807 5808 5809 5809 5809 5809 5810 5811 5811 5810 5810 5810 5810 5810 5809 5809 5809 5808 5807 5807 5806 5805 5804 5804 5804 5803 5802 5802 5801 5800 5800 5799 5799 5799 5798 5798 5798 5798 5798 5798 5798
5801 5801 5800 5802 5803 5802 5803 5802 5803 5803 5805 5804 5804 5803 5803 5803 5803 5803 5803 5802 5802 5801 5800 5799 5798 5798 5797 5797 5797 5796 5795 5794 5794 5793 5793 5793 5793 5792 5792 5792 5792 5792 5792 5792
5794 5795 5794 5798 5796 5795 5795 5795 5795 5795 5796 5796 5796 5796 5796 5796 5796 5795 5795 5795 5794 5794 5793 5792 5792 5791 5791 5790 5790 5789 5788 5788 5787 5787 5786 5786 5786 5786 5786 5786 5786 5786 5786 5786
5788 5787 5787 5789 5788 5787 5787 5788 5787 5787 5788 5788 5788 5788 5788 5788 5787 5787 5787 5787 5786 5786 5785 5785 5784 5784 5783 5783 5782 5781 5781 5780 5780 5780 5780 5780 5779 5779 5779 5779 5779 5780 5779 5779
5780 5779 5780 5782 5781 5779 5780 5780 5780 5779 5779 5780 5779 5780 5780 5779 5779 5779 5779 5778 5778 5777 5777 5777 5776 5775 5775 5774 5774 5774 5773 5773 5772 5772 5772 5772 5772 5772 5772 5772 5772 5773 5772 5772
5772 5771 5772 5773 5772 5772 5773 5773 5772 5771 5771 5771 5771 5771 5771 5770 5770 5770 5770 5769 5769 5769 5768 5768 5767 5766 5766 5766 5765 5765 5765 5764 5764 5764 5764 5764 5764 5764 5765 5765 5765 5765 5765 5765
5765 5764 5766 5764 5763 5764 5764 5763 5762 5762 5762 5762 5762 5761 5761 5761 5761 5761 5760 5760 5760 5759 5759 5759 5758 5757 5757 5756 5756 5756 5756 5756 5756 5756 5756 5756 5756 5756 5756 5756 5757 5757 5757 5757
5757 5758 5757 5756 5755 5754 5754 5754 5753 5753 5753 5752 5752 5752 5752 5752 5752 5751 5751 5750 5750 5749 5749 5749 5748 5748 5747 5747 5746 5746 5746 5746 5746 5746 5746 5746 5747 5747 5747 5748 5748 5748 5748 5748
5748 5748 5748 5747 5746 5745 5744 5744 5744 5743 5743 5743 5743 5743 5742 5742 5741 5741 5741 5740 5739 5739 5739 5739 5738 5737 5737 5736 5736 5736 5736 5736 5736 5736 5736 5737 5737 5738 5738 5738 5738 5739 5739 5739
5740 5740 5739 5738 5737 5737 5735 5735 5734 5734 5733 5733 5733 5733 5732 5731 5731 5731 5730 5729 5729 5728 5728 5728 5727 5727 5726 5726 5725 5725 5725 5725 5726 5726 5726 5726 5727 5728 5728 5728 5728 5729 5729 5729
5732 5731 5730 5730 5728 5727 5726 5725 5724 5724 5723 5723 5722 5722 5721 5721 5720 5720 5720 5719 5718 5718 5717 5717 5716 5716 5715 5715 5715 5715 5715 5715 5715 5715 5715 5716 5716 5717 5717 5718 5718 5718 5718 5718
5722 5721 5720 5720 5719 5718 5716 5715 5715 5714 5713 5712 5712 5711 5711 5710 5710 5709 5709 5708 5708 5707 5706 5705 5705 5704 5704 5704 5704 5704 5704 5704 5704 5704 5704 5705 5705 5706 5706 5707 5706 5707 5707 5707
5713 5712 5711 5711 5710 5709 5707 5706 5705 5704 5703 5702 5701 5700 5700 5699 5699 5698 5698 5697 5696 5695 5694 5694 5693 5693 5692 5692 5692 5692 5692 5693 5693 5693 5693 5693 5693 5694 5694 5694 5695 5695 5695 5696
5704 5703 5702 5701 5700 5699 5698 5697 5695 5694 5693 5692 5691 5690 5689 5689 5688 5688 5687 5686 5685 5684 5683 5682 5681 5680 5680 5680 5680 5680 5680 5681 5681 5681 5681 5681 5681 5681 5682 5682 5682 5683 5683 5684
5695 5694 5693 5692 5691 5690 5688 5687 5685 5684 5683 5682 5681 5680 5679 5678 5677 5676 5676 5674 5673 5672 5671 5670 5669 5668 5667 5667 5667 5667 5668 5668 5668 5668 5669 5669 5669 5669 5669 5669 5670 5670 5671 5671
5686 5685 5684 5683 5682 5680 5679 5677 5676 5675 5673 5672 5670 5669 5668 5667 5666 5665 5664 5662 5661 5660 5658 5657 5656 5655 5654 5654 5654 5654 5655 5655 5655 5655 5656 5656 5656 5656 5656 5656 5657 5657 5658 5658
5677 5676 5675 5674 5672 5671 5670 5668 5666 5665 5663 5661 5660 5658 5657 5656 5654 5653 5651 5650 5648 5647 5646 5645 5643 5642 5642 5641 5641 5641 5641 5642 5642 5642 5642 5643 5643 5642 5642 5642 5642 5643 5644 5644
5669 5668 5666 5665 5663 5662 5660 5658 5657 5655 5653 5651 5650 5648 5646 5644 5643 5641 5640 5638 5636 5635 5634 5632 5631 5630 5629 5628 5628 5628 5628 5628 5628 5628 5629 5629 5629 5628 5628 5628 5628 5629 5630 5630
5661 5659 5658 5656 5655 5653 5651 5649 5647 5645 5643 5641 5639 5637 5635 5633 5631 5629 5628 5626 5625 5623 5622 5620 5619 5618 5617 5616 5615 5615 5615 5615 5615 5615 5615 5615 5615 5615 5615 5615 5615 5615 5616 5617
5652 5651 5649 5647 5646 5644 5642 5640 5637 5635 5633 5630 5628 5626 5624 5622 5620 5618 5616 5615 5614 5611 5610 5608 5607 5606 5605 5604 5603 5603 5603 5602 5602 5602 5602 5602 5602 5601 5601 5602 5602 5602 5603 5603
5644 5642 5640 5639 5637 5635 5633 5630 5628 5626 5623 5620 5618 5616 5613 5611 5609 5607 5605 5603 5602 5600 5599 5597 5596 5595 5593 5592 5592 5591 5591 5590 5590 5590 5590 5589 5589 5589 5589 5589 5589 5590 5590 5591
5635 5633 5631 5629 5628 5625 5623 5621 5618 5615 5613 5610 5608 5605 5603 5600 5598 5596 5594 5593 5591 5590 5588 5586 5585 5583 5582 5581 5580 5580 5579 5579 5578 5578 5578 5577 5577 5577 5577 5577 5577 5578 5579 5579
5626 5624 5622 5620 5618 5616 5614 5611 5608 5605 5603 5600 5598 5595 5593 5590 5588 5586 5584 5583 5581 5579 5578 5576 5574 5572 5571 5570 5569 5568 5568 5567 5567 5566 5566 5566 5566 5566 5566 5566 5566 5567 5567 5568
5617 5615 5613 5611 5609 5607 5604 5602 5599 5596 5593 5591 5588 5585 5583 5581 5579 5577 5575 5574 5572 5570 5568 5566 5564 5562 5560 5559 5558 5558 5557 5557 5556 5556 5555 5555 5555 5555 5555 5556 5556 5556 5556 5557
5608 5606 5604 5602 5600 5597 5595 5592 5590 5587 5584 5582 5579 5577 5574 5572 5570 5568 5566 5565 5563 5561 5558 5556 5554 5552 5550 5549 5549 5548 5547 5546 5546 5546 5545 5545 5545 5546 5546 5546 5546 5546 5546 5546
5598 5597 5595 5593 5591 5588 5586 5583 5581 5578 5576 5573 5571 5568 5566 5564 5562 5560 5558 5556 5554 5552 5550 5548 5545 5544 5542 5541 5540 5539 5538 5537 5537 5536 5536 5536 5536 5536 5536 5536 5536 5536 5536 5536